SVA627 OERK-OEDF

Flight info

Callsign SVA627
Flight time N/A
Altitude 25000
Route EGPIN H744 ITUNI N687 MIBRA
Aircraft B77W/H-SDE1E2E3FGHIJ2J3J4J5M1RWXY/LB1D1

Departure

Time 2026-05-06 11:59
Airport King Khalid International Airport (OERK)

Arrival

Time N/A
Airport King Fahd International Airport (OEDF)
Time Latitude Longitude Altitude Speed Heading
2026-05-06 11:26 24.95887 46.70561 2035 ft 0 kts 265°
2026-05-06 11:46 24.95883 46.70512 2039 ft 2 kts 85°
2026-05-06 11:46 24.95885 46.70532 2040 ft 3 kts 84°
2026-05-06 11:46 24.95886 46.70541 2038 ft 3 kts 84°
2026-05-06 11:46 24.95887 46.70549 2039 ft 3 kts 84°
2026-05-06 11:47 24.95889 46.70572 2035 ft 3 kts 84°
2026-05-06 11:47 24.95891 46.70591 2041 ft 2 kts 84°
2026-05-06 11:47 24.95891 46.70590 2041 ft 0 kts 84°
2026-05-06 11:49 24.95890 46.70590 2041 ft 0 kts 84°
2026-05-06 11:50 24.95891 46.70590 2041 ft 0 kts 84°
2026-05-06 11:50 24.95893 46.70616 2037 ft 8 kts 84°
2026-05-06 11:50 24.95880 46.70672 2041 ft 8 kts 120°
2026-05-06 11:50 24.95839 46.70710 2043 ft 8 kts 153°
2026-05-06 11:51 24.95792 46.70738 2043 ft 8 kts 150°
2026-05-06 11:51 24.95744 46.70768 2045 ft 8 kts 150°
2026-05-06 11:51 24.95695 46.70801 2044 ft 10 kts 148°
2026-05-06 11:51 24.95637 46.70838 2044 ft 10 kts 151°
2026-05-06 11:52 24.95579 46.70873 2043 ft 10 kts 151°
2026-05-06 11:52 24.95522 46.70909 2044 ft 10 kts 150°
2026-05-06 11:52 24.95464 46.70946 2044 ft 10 kts 150°
2026-05-06 11:52 24.95407 46.70982 2045 ft 10 kts 150°
2026-05-06 11:53 24.95351 46.71022 2043 ft 10 kts 139°
2026-05-06 11:53 24.95340 46.71088 2041 ft 10 kts 64°
2026-05-06 11:53 24.95370 46.71154 2039 ft 10 kts 60°
2026-05-06 11:53 24.95404 46.71218 2044 ft 10 kts 60°
2026-05-06 11:54 24.95439 46.71281 2040 ft 10 kts 59°
2026-05-06 11:54 24.95463 46.71348 2043 ft 10 kts 85°
2026-05-06 11:54 24.95430 46.71406 2039 ft 10 kts 155°
2026-05-06 11:54 24.95370 46.71441 2044 ft 10 kts 150°
2026-05-06 11:55 24.95312 46.71478 2040 ft 10 kts 150°
2026-05-06 11:55 24.95254 46.71515 2045 ft 10 kts 150°
2026-05-06 11:55 24.95187 46.71557 2044 ft 12 kts 150°
2026-05-06 11:55 24.95117 46.71602 2040 ft 12 kts 150°
2026-05-06 11:56 24.95046 46.71647 2046 ft 12 kts 150°
2026-05-06 11:56 24.94976 46.71691 2042 ft 12 kts 150°
2026-05-06 11:56 24.94894 46.71743 2044 ft 22 kts 150°
2026-05-06 11:56 24.94727 46.71848 2041 ft 29 kts 150°
2026-05-06 11:57 24.94558 46.71956 2038 ft 17 kts 150°
2026-05-06 11:57 24.94489 46.72011 2046 ft 11 kts 126°
2026-05-06 11:57 24.94497 46.72089 2044 ft 11 kts 62°
2026-05-06 11:57 24.94516 46.72126 2047 ft 1 kts 61°
2026-05-06 11:58 24.94531 46.72153 2043 ft 5 kts 50°
2026-05-06 11:58 24.94564 46.72162 2040 ft 5 kts 354°
2026-05-06 11:58 24.94623 46.72137 2043 ft 21 kts 332°
2026-05-06 11:58 24.94941 46.71937 2039 ft 86 kts 330°
2026-05-06 11:59 24.95633 46.71499 2045 ft 142 kts 330°
2026-05-06 11:59 24.96634 46.70891 2049 ft 183 kts 335°
2026-05-06 11:59 24.97805 46.70229 2448 ft 189 kts 334°
2026-05-06 11:59 24.98984 46.69534 2913 ft 201 kts 336°
2026-05-06 12:00 25.00233 46.68845 3448 ft 199 kts 341°
2026-05-06 12:00 25.01563 46.68690 3823 ft 195 kts 25°
2026-05-06 12:00 25.02598 46.69686 4343 ft 215 kts 63°
2026-05-06 12:00 25.03253 46.71291 5053 ft 243 kts 68°
2026-05-06 12:01 25.03946 46.73111 5867 ft 273 kts 70°
2026-05-06 12:01 25.04694 46.75099 6869 ft 288 kts 70°
2026-05-06 12:01 25.05473 46.77174 8042 ft 297 kts 70°
2026-05-06 12:01 25.06276 46.79309 9212 ft 305 kts 70°
2026-05-06 12:02 25.07113 46.81484 10334 ft 312 kts 69°
2026-05-06 12:02 25.08003 46.83729 11219 ft 331 kts 68°
2026-05-06 12:02 25.08977 46.86169 11684 ft 365 kts 68°
2026-05-06 12:02 25.10046 46.88847 12018 ft 397 kts 67°
2026-05-06 12:03 25.11177 46.91679 12919 ft 407 kts 67°
2026-05-06 12:03 25.12309 46.94514 14100 ft 409 kts 67°
2026-05-06 12:03 25.13463 46.97406 15193 ft 416 kts 67°
2026-05-06 12:03 25.14635 47.00353 16226 ft 424 kts 67°
2026-05-06 12:04 25.15831 47.03371 17199 ft 432 kts 67°
2026-05-06 12:04 25.17042 47.06431 18229 ft 439 kts 67°
2026-05-06 12:04 25.18275 47.09548 19071 ft 447 kts 67°
2026-05-06 12:04 25.19529 47.12722 19811 ft 456 kts 67°
2026-05-06 12:05 25.20813 47.15973 20537 ft 465 kts 67°
2026-05-06 12:05 25.22119 47.19281 21286 ft 473 kts 67°
2026-05-06 12:05 25.23441 47.22636 22020 ft 480 kts 67°
2026-05-06 12:05 25.24785 47.26046 22690 ft 488 kts 67°
2026-05-06 12:06 25.26150 47.29513 23344 ft 495 kts 67°
2026-05-06 12:06 25.27064 47.31836 23729 ft 500 kts 67°
2026-05-06 12:06 25.28455 47.35372 24327 ft 504 kts 67°
2026-05-06 12:06 25.29852 47.38928 24891 ft 504 kts 67°
2026-05-06 12:07 25.31247 47.42483 24940 ft 507 kts 67°
2026-05-06 12:07 25.32664 47.46097 24954 ft 518 kts 67°
2026-05-06 12:07 25.34109 47.49786 24958 ft 529 kts 67°
2026-05-06 12:07 25.35583 47.53551 24950 ft 537 kts 67°
2026-05-06 12:08 25.37070 47.57354 24942 ft 540 kts 67°
2026-05-06 12:08 25.38559 47.61164 24932 ft 539 kts 67°
2026-05-06 12:08 25.40048 47.64975 24926 ft 539 kts 67°
2026-05-06 12:08 25.41533 47.68783 24926 ft 538 kts 67°
2026-05-06 12:09 25.43016 47.72587 24924 ft 538 kts 67°
2026-05-06 12:09 25.44494 47.76385 24922 ft 538 kts 67°
2026-05-06 12:09 25.45952 47.80132 24920 ft 537 kts 67°
2026-05-06 12:09 25.47428 47.83931 24916 ft 537 kts 67°
2026-05-06 12:10 25.48906 47.87736 24914 ft 537 kts 67°
2026-05-06 12:10 25.50379 47.91534 24913 ft 537 kts 67°
2026-05-06 12:10 25.51854 47.95339 24912 ft 537 kts 67°
2026-05-06 12:10 25.53325 47.99139 24909 ft 537 kts 67°
2026-05-06 12:11 25.54791 48.02929 24902 ft 537 kts 67°
2026-05-06 12:11 25.56260 48.06729 24904 ft 536 kts 67°
2026-05-06 12:11 25.57728 48.10530 24902 ft 536 kts 67°
2026-05-06 12:11 25.59193 48.14328 24901 ft 536 kts 67°
2026-05-06 12:12 25.60655 48.18122 24901 ft 536 kts 67°
2026-05-06 12:12 25.62116 48.21917 24894 ft 535 kts 67°
2026-05-06 12:12 25.63575 48.25708 24893 ft 535 kts 67°
2026-05-06 12:12 25.65034 48.29505 24892 ft 535 kts 67°
2026-05-06 12:13 25.66492 48.33300 24893 ft 535 kts 67°
2026-05-06 12:13 25.67964 48.37090 24891 ft 535 kts 65°
2026-05-06 12:13 25.69634 48.40777 24889 ft 535 kts 60°
2026-05-06 12:13 25.71589 48.44277 24891 ft 534 kts 57°
2026-05-06 12:14 25.73584 48.47694 24887 ft 534 kts 56°
2026-05-06 12:14 25.75612 48.51153 24879 ft 534 kts 56°
2026-05-06 12:14 25.77625 48.54612 24877 ft 534 kts 57°
2026-05-06 12:14 25.79626 48.58087 24876 ft 534 kts 57°
2026-05-06 12:15 25.81611 48.61563 24880 ft 534 kts 57°
2026-05-06 12:15 25.83588 48.65040 24870 ft 528 kts 57°
2026-05-06 12:15 25.85509 48.68426 24847 ft 509 kts 57°
2026-05-06 12:15 25.87361 48.71690 24853 ft 490 kts 57°
2026-05-06 12:16 25.89158 48.74855 24778 ft 480 kts 57°
2026-05-06 12:16 25.90925 48.77967 24458 ft 473 kts 57°
2026-05-06 12:16 25.92672 48.81045 24006 ft 470 kts 57°
2026-05-06 12:16 25.94415 48.84100 23508 ft 467 kts 56°
2026-05-06 12:17 25.96444 48.86894 22897 ft 462 kts 44°
2026-05-06 12:17 25.98768 48.89337 22361 ft 458 kts 40°
2026-05-06 12:17 26.01138 48.91679 21876 ft 453 kts 40°
2026-05-06 12:17 26.03488 48.93991 21422 ft 449 kts 40°
2026-05-06 12:18 26.05799 48.96301 20943 ft 445 kts 41°
2026-05-06 12:18 26.08042 48.98584 20482 ft 441 kts 41°
2026-05-06 12:18 26.10286 49.00900 20015 ft 438 kts 41°
2026-05-06 12:18 26.12503 49.03207 19563 ft 435 kts 42°
2026-05-06 12:19 26.14700 49.05501 19065 ft 433 kts 42°
2026-05-06 12:19 26.16905 49.07806 18317 ft 438 kts 42°
2026-05-06 12:19 26.19136 49.10139 17574 ft 440 kts 42°
2026-05-06 12:19 26.21368 49.12474 16921 ft 439 kts 42°
2026-05-06 12:20 26.23582 49.14790 16394 ft 435 kts 43°
2026-05-06 12:20 26.25771 49.17081 15947 ft 429 kts 43°
2026-05-06 12:20 26.27930 49.19341 15465 ft 425 kts 43°
2026-05-06 12:20 26.30074 49.21587 15011 ft 420 kts 43°
2026-05-06 12:21 26.32196 49.23810 14522 ft 417 kts 43°
2026-05-06 12:21 26.34293 49.26008 14192 ft 409 kts 43°
2026-05-06 12:21 26.36351 49.28168 13794 ft 404 kts 43°
2026-05-06 12:21 26.38373 49.30285 13253 ft 403 kts 43°
2026-05-06 12:22 26.40408 49.32417 12700 ft 401 kts 43°
2026-05-06 12:22 26.42445 49.34552 12256 ft 400 kts 43°
2026-05-06 12:22 26.44467 49.36671 11839 ft 399 kts 43°
2026-05-06 12:22 26.46481 49.38785 11568 ft 392 kts 43°
2026-05-06 12:23 26.48406 49.40806 11189 ft 368 kts 43°
2026-05-06 12:23 26.50214 49.42705 10898 ft 346 kts 43°
2026-05-06 12:23 26.51932 49.44510 10502 ft 332 kts 43°
2026-05-06 12:23 26.53580 49.46246 10062 ft 321 kts 43°
2026-05-06 12:24 26.55174 49.47926 9734 ft 308 kts 43°
2026-05-06 12:24 26.56715 49.49552 9263 ft 300 kts 43°
2026-05-06 12:24 26.58211 49.51131 8644 ft 300 kts 43°
2026-05-06 12:24 26.59728 49.52733 8065 ft 298 kts 44°
2026-05-06 12:25 26.61206 49.54293 7741 ft 287 kts 43°
2026-05-06 12:25 26.62629 49.55795 7399 ft 277 kts 45°
2026-05-06 12:25 26.63717 49.57522 6844 ft 273 kts 76°
2026-05-06 12:25 26.63817 49.59628 5983 ft 277 kts 109°
2026-05-06 12:26 26.63102 49.61671 4747 ft 291 kts 117°
2026-05-06 12:26 26.62302 49.63839 3390 ft 310 kts 114°
2026-05-06 12:26 26.61518 49.66095 2465 ft 309 kts 110°
2026-05-06 12:26 26.60783 49.68249 2208 ft 284 kts 110°
2026-05-06 12:27 26.60109 49.70228 2018 ft 262 kts 108°
2026-05-06 12:27 26.59498 49.72032 1961 ft 234 kts 107°
2026-05-06 12:27 26.58951 49.73646 1937 ft 212 kts 105°
2026-05-06 12:27 26.58216 49.75086 2005 ft 221 kts 137°
2026-05-06 12:28 26.56863 49.75801 1984 ft 211 kts 167°
2026-05-06 12:28 26.55418 49.76138 1627 ft 212 kts 166°
2026-05-06 12:28 26.53986 49.76470 1224 ft 209 kts 164°
2026-05-06 12:28 26.52675 49.76920 958 ft 192 kts 160°
2026-05-06 12:29 26.51448 49.77357 676 ft 178 kts 163°
2026-05-06 12:29 26.50252 49.77711 374 ft 173 kts 165°
2026-05-06 12:29 26.49111 49.78053 157 ft 169 kts 162°
2026-05-06 12:29 26.48036 49.78396 93 ft 147 kts 165°
2026-05-06 12:30 26.47261 49.78630 95 ft 56 kts 165°